contact:dominique.lefevre@mio.osupytheas.fr, maurice.libes@osupytheas.fr, didier.mallarino@osupytheas.fr
Project:EMSO http://www.emso-fr.org/EMSO-France
Depth: 2436.0 m
Title:EMSO Ligure Ouest : Data MII capteur AQUADOPP
Date,Latitude,Longitude,X_East,Y_North,Z_Up,Amplitude_X,Amplitude_Y,Amplitude_Z,Batterie,SoundSpeed,Heading,Pitch,Roll,Pressure,TIS,Speed,Direction
, degrees North, degrees East, m.s-1, m.s-1,m.s-1, 1, 1, 1, Volt, m.s-1, degree, degree, degree, dbar, degree_C, m.s-1, degree
2023-09-01T00:04:03,42.805,6.029,0.035,0.012,-0.028,104.0,104.0,103.0,13.3,1505.2,325.7,-0.8,1.8,2471.525,13.28,0.037,71.1
2023-09-01T00:07:03,42.805,6.029,0.022,0.003,-0.006,104.0,104.0,103.0,13.4,1505.2,334.4,-0.7,1.8,2471.509,13.29,0.022,82.2
2023-09-01T00:10:03,42.805,6.029,-0.001,-0.003,0.0,104.0,104.0,103.0,13.4,1505.2,339.3,-0.7,1.8,2471.554,13.29,0.003,198.4
2023-09-01T00:13:03,42.805,6.029,0.014,-0.012,-0.02,105.0,105.0,102.0,13.3,1505.2,344.7,-0.7,1.8,2471.547,13.29,0.018,130.6
2023-09-01T00:16:03,42.805,6.029,0.019,-0.008,-0.02,104.0,103.0,103.0,13.4,1505.2,326.8,-0.8,1.8,2471.512,13.29,0.02,112.8
2023-09-01T00:19:03,42.805,6.029,0.017,-0.041,-0.003,104.0,104.0,103.0,13.4,1505.2,342.8,-0.7,1.8,2471.497,13.29,0.044,157.5
2023-09-01T00:22:03,42.805,6.029,0.051,0.003,-0.006,103.0,104.0,103.0,13.4,1505.2,334.4,-0.7,1.8,2471.485,13.29,0.051,86.6
2023-09-01T00:25:03,42.805,6.029,0.022,-0.012,-0.017,105.0,104.0,100.0,13.4,1505.2,334.4,-0.8,1.8,2471.516,13.29,0.025,118.6
2023-09-01T00:28:03,42.805,6.029,0.031,0.004,-0.019,104.0,103.0,103.0,13.4,1505.2,335.5,-0.7,1.8,2471.482,13.29,0.031,82.7
2023-09-01T00:31:03,42.805,6.029,-0.003,0.012,-0.006,104.0,104.0,102.0,13.4,1505.2,323.3,-0.7,1.8,2471.474,13.29,0.012,346.0
2023-09-01T00:34:03,42.805,6.029,0.039,-0.006,-0.004,104.0,104.0,102.0,13.4,1505.2,337.7,-0.7,1.8,2471.484,13.29,0.039,98.7
2023-09-01T00:37:03,42.805,6.029,0.035,-0.017,-0.043,103.0,104.0,104.0,13.4,1505.2,337.8,-0.8,1.8,2471.481,13.29,0.038,115.9
2023-09-01T00:40:03,42.805,6.029,0.012,-0.007,-0.018,104.0,103.0,103.0,13.3,1505.2,339.4,-0.8,1.8,2471.436,13.29,0.013,120.3
2023-09-01T00:43:03,42.805,6.029,0.011,0.001,0.005,104.0,104.0,103.0,13.4,1505.2,348.6,-0.8,1.8,2471.44,13.29,0.011,84.8
2023-09-01T00:46:03,42.805,6.029,0.029,0.01,0.007,104.0,103.0,102.0,13.4,1505.2,328.8,-0.8,1.9,2471.476,13.29,0.03,71.0
2023-09-01T00:49:03,42.805,6.029,0.022,-0.009,-0.002,104.0,104.0,103.0,13.3,1505.2,343.0,-0.8,1.8,2471.44,13.29,0.023,112.2
2023-09-01T00:52:03,42.805,6.029,0.006,-0.008,-0.011,105.0,105.0,102.0,13.3,1505.2,333.4,-0.8,1.8,2471.42,13.29,0.01,143.1
2023-09-01T00:55:03,42.805,6.029,0.024,-0.014,-0.042,104.0,104.0,103.0,13.4,1505.2,339.1,-0.8,1.8,2471.437,13.29,0.027,120.3
2023-09-01T00:58:03,42.805,6.029,0.016,0.006,0.005,104.0,104.0,103.0,13.4,1505.2,350.3,-0.8,1.8,2471.47,13.29,0.017,69.4
2023-09-01T01:04:03,42.805,6.029,0.026,-0.012,-0.02,105.0,105.0,104.0,13.3,1505.2,344.0,-0.8,1.8,2471.481,13.28,0.028,114.8
2023-09-01T01:07:03,42.805,6.029,0.045,0.016,0.009,105.0,103.0,102.0,13.3,1505.2,340.4,-0.8,1.8,2471.484,13.28,0.047,70.4
2023-09-01T01:10:03,42.805,6.029,0.032,0.007,-0.013,105.0,104.0,103.0,13.4,1505.2,336.3,-0.8,1.8,2471.496,13.29,0.032,77.7
2023-09-01T01:13:03,42.805,6.029,0.023,0.0,0.003,104.0,105.0,103.0,13.3,1505.2,341.2,-0.7,1.8,2471.457,13.29,0.023,90.0
2023-09-01T01:16:03,42.805,6.029,0.032,0.015,-0.013,104.0,105.0,103.0,13.3,1505.2,326.5,-0.8,1.8,2471.48,13.29,0.035,64.9
2023-09-01T01:19:03,42.805,6.029,0.021,-0.021,-0.014,106.0,103.0,102.0,13.4,1505.2,349.5,-0.8,1.8,2471.439,13.29,0.029,135.0
2023-09-01T01:22:03,42.805,6.029,0.032,0.024,0.014,105.0,103.0,103.0,13.3,1505.2,328.7,-0.8,1.8,2471.444,13.29,0.04,53.1
2023-09-01T01:25:03,42.805,6.029,0.054,-0.006,0.009,104.0,103.0,102.0,13.3,1505.2,343.3,-0.8,1.8,2471.466,13.29,0.054,96.3
2023-09-01T01:28:03,42.805,6.029,0.05,-0.027,-0.015,103.0,103.0,103.0,13.3,1505.2,337.1,-0.8,1.8,2471.417,13.29,0.056,118.4
2023-09-01T01:31:03,42.805,6.029,0.024,0.008,-0.032,104.0,105.0,103.0,13.3,1505.2,330.3,-0.8,1.8,2471.44,13.29,0.025,71.6
2023-09-01T01:34:03,42.805,6.029,0.031,-0.021,-0.036,105.0,105.0,101.0,13.4,1505.2,352.8,-0.8,1.8,2471.436,13.29,0.037,124.1
2023-09-01T01:37:03,42.805,6.029,0.03,0.011,-0.015,103.0,104.0,103.0,13.4,1505.2,328.5,-0.8,1.8,2471.447,13.29,0.031,69.9
2023-09-01T01:40:03,42.805,6.029,0.044,-0.015,-0.021,104.0,103.0,103.0,13.3,1505.2,338.2,-0.8,1.8,2471.425,13.29,0.046,108.8
2023-09-01T01:43:03,42.805,6.029,0.034,-0.029,-0.021,105.0,103.0,101.0,13.4,1505.2,345.2,-0.7,1.8,2471.411,13.29,0.044,130.5
2023-09-01T01:46:03,42.805,6.029,0.028,-0.016,-0.048,105.0,104.0,102.0,13.4,1505.2,346.2,-0.8,1.8,2471.45,13.29,0.032,119.7
2023-09-01T01:49:03,42.805,6.029,0.011,-0.001,-0.045,103.0,104.0,102.0,13.4,1505.2,333.4,-0.8,1.8,2471.413,13.29,0.011,95.2
2023-09-01T01:52:03,42.805,6.029,0.016,-0.005,-0.016,105.0,104.0,102.0,13.4,1505.2,354.5,-0.8,1.8,2471.394,13.29,0.016,107.4
2023-09-01T01:55:03,42.805,6.029,0.028,0.018,0.01,104.0,104.0,103.0,13.3,1505.2,333.8,-0.8,1.8,2471.428,13.29,0.033,57.3
2023-09-01T01:58:03,42.805,6.029,0.023,0.001,-0.032,104.0,105.0,102.0,13.4,1505.2,339.9,-0.8,1.8,2471.417,13.29,0.023,87.5
2023-09-01T02:04:03,42.805,6.029,0.034,-0.022,-0.009,105.0,104.0,102.0,13.4,1505.2,339.4,-0.8,1.8,2471.447,13.28,0.04,122.9
2023-09-01T02:07:03,42.805,6.029,0.013,0.0,0.02,105.0,103.0,102.0,13.3,1505.2,347.1,-0.7,1.8,2471.459,13.28,0.013,90.0
2023-09-01T02:10:03,42.805,6.029,0.036,-0.003,-0.008,105.0,104.0,103.0,13.4,1505.2,331.0,-0.8,1.8,2471.447,13.29,0.036,94.8
2023-09-01T02:13:03,42.805,6.029,0.038,0.008,-0.025,104.0,106.0,101.0,13.3,1505.2,325.3,-0.7,1.8,2471.412,13.29,0.038,78.1
2023-09-01T02:16:03,42.805,6.029,0.03,-0.028,-0.02,104.0,103.0,103.0,13.4,1505.2,345.4,-0.8,1.8,2471.4,13.29,0.041,133.0
2023-09-01T02:19:03,42.805,6.029,0.017,-0.016,-0.002,104.0,103.0,103.0,13.4,1505.2,344.5,-0.8,1.8,2471.436,13.29,0.023,133.3
2023-09-01T02:22:03,42.805,6.029,0.021,-0.03,-0.036,103.0,104.0,102.0,13.4,1505.2,351.8,-0.8,1.8,2471.403,13.29,0.036,145.0
2023-09-01T02:25:03,42.805,6.029,0.035,-0.026,-0.022,104.0,106.0,102.0,13.4,1505.2,345.6,-0.7,1.8,2471.412,13.29,0.043,126.6
2023-09-01T02:28:03,42.805,6.029,0.014,-0.009,-0.061,102.0,103.0,103.0,13.4,1505.2,339.7,-0.7,1.8,2471.386,13.29,0.016,122.7
2023-09-01T02:31:03,42.805,6.029,0.008,0.01,0.014,104.0,104.0,103.0,13.4,1505.2,322.7,-0.7,1.8,2471.416,13.29,0.012,38.7
2023-09-01T02:34:03,42.805,6.029,0.035,-0.01,-0.035,105.0,104.0,102.0,13.3,1505.2,345.2,-0.8,1.8,2471.398,13.29,0.036,105.9
2023-09-01T02:37:03,42.805,6.029,0.02,-0.009,0.01,104.0,104.0,102.0,13.3,1505.2,333.4,-0.8,1.8,2471.401,13.29,0.021,114.2
2023-09-01T02:40:03,42.805,6.029,0.039,0.005,-0.017,105.0,104.0,103.0,13.3,1505.2,332.1,-0.8,1.8,2471.408,13.29,0.039,82.7
2023-09-01T02:43:03,42.805,6.029,0.033,-0.017,-0.01,104.0,103.0,102.0,13.3,1505.2,353.2,-0.8,1.8,2471.371,13.29,0.037,117.3
2023-09-01T02:46:03,42.805,6.029,0.039,0.004,-0.016,105.0,103.0,102.0,13.4,1505.2,329.7,-0.8,1.8,2471.396,13.29,0.039,84.1
2023-09-01T02:49:03,42.805,6.029,0.035,0.004,-0.004,103.0,104.0,102.0,13.4,1505.2,333.8,-0.8,1.8,2471.368,13.29,0.035,83.5
2023-09-01T02:52:03,42.805,6.029,0.034,0.0,0.005,106.0,103.0,103.0,13.3,1505.2,349.3,-0.7,1.8,2471.343,13.29,0.034,90.0
2023-09-01T02:55:03,42.805,6.029,0.039,0.001,-0.013,104.0,104.0,103.0,13.3,1505.2,326.3,-0.7,1.8,2471.389,13.29,0.039,88.5
2023-09-01T02:58:03,42.805,6.029,0.033,0.01,0.002,105.0,104.0,103.0,13.3,1505.2,329.8,-0.8,1.9,2471.4,13.29,0.034,73.1
2023-09-01T03:04:03,42.805,6.029,0.052,-0.006,0.002,105.0,104.0,102.0,13.3,1505.2,337.3,-0.8,1.8,2471.453,13.28,0.052,96.6
2023-09-01T03:07:03,42.805,6.029,0.049,-0.005,0.009,104.0,104.0,103.0,13.4,1505.2,333.4,-0.7,1.8,2471.422,13.28,0.049,95.8
2023-09-01T03:10:03,42.805,6.029,0.034,-0.017,-0.005,104.0,105.0,102.0,13.4,1505.2,336.5,-0.8,1.8,2471.428,13.29,0.038,116.6
2023-09-01T03:13:03,42.805,6.029,0.023,-0.028,-0.041,105.0,103.0,102.0,13.4,1505.2,341.2,-0.8,1.8,2471.445,13.29,0.036,140.6
2023-09-01T03:16:03,42.805,6.029,0.035,0.023,0.024,103.0,104.0,102.0,13.3,1505.2,324.5,-0.7,1.8,2471.401,13.29,0.041,56.7
2023-09-01T03:19:03,42.805,6.029,0.026,-0.02,-0.003,104.0,105.0,102.0,13.4,1505.2,336.9,-0.8,1.8,2471.419,13.29,0.032,127.6
2023-09-01T03:22:03,42.805,6.029,0.036,0.004,-0.004,104.0,104.0,102.0,13.4,1505.2,331.4,-0.8,1.8,2471.421,13.29,0.036,83.7
2023-09-01T03:25:03,42.805,6.029,0.034,-0.004,-0.005,104.0,106.0,103.0,13.3,1505.2,330.6,-0.7,1.8,2471.393,13.29,0.034,96.7
2023-09-01T03:28:03,42.805,6.029,0.037,-0.006,-0.012,105.0,103.0,103.0,13.4,1505.2,332.0,-0.8,1.8,2471.427,13.29,0.037,99.2
2023-09-01T03:31:03,42.805,6.029,0.048,-0.032,-0.006,103.0,104.0,102.0,13.4,1505.2,351.0,-0.8,1.8,2471.397,13.29,0.057,123.7
2023-09-01T03:34:03,42.805,6.029,0.027,-0.003,-0.014,104.0,103.0,102.0,13.3,1505.2,331.9,-0.7,1.8,2471.4,13.29,0.027,96.3
2023-09-01T03:37:03,42.805,6.029,0.053,-0.034,-0.017,104.0,103.0,103.0,13.3,1505.2,348.9,-0.8,1.8,2471.373,13.29,0.062,122.7
2023-09-01T03:40:03,42.805,6.029,0.037,0.009,-0.019,104.0,104.0,102.0,13.4,1505.2,337.8,-0.8,1.8,2471.394,13.29,0.038,76.3
2023-09-01T03:43:03,42.805,6.029,0.03,0.0,-0.01,104.0,105.0,103.0,13.4,1505.2,325.7,-0.7,1.8,2471.391,13.29,0.03,90.0
2023-09-01T03:46:03,42.805,6.029,0.023,-0.029,-0.04,104.0,103.0,103.0,13.4,1505.2,336.9,-0.8,1.8,2471.422,13.29,0.037,141.6
2023-09-01T03:49:03,42.805,6.029,0.02,-0.011,0.006,103.0,105.0,103.0,13.3,1505.2,353.1,-0.8,1.8,2471.409,13.29,0.022,118.8
2023-09-01T03:52:03,42.805,6.029,0.029,-0.022,-0.011,104.0,104.0,103.0,13.4,1505.2,326.7,-0.8,1.8,2471.367,13.29,0.036,127.2
2023-09-01T03:55:03,42.805,6.029,0.046,-0.011,-0.033,104.0,105.0,103.0,13.3,1505.2,342.9,-0.8,1.8,2471.402,13.29,0.047,103.4
2023-09-01T03:58:03,42.805,6.029,0.034,-0.015,-0.028,105.0,103.0,104.0,13.3,1505.2,336.0,-0.8,1.8,2471.388,13.29,0.037,113.8
2023-09-01T04:04:03,42.805,6.029,0.058,0.0,-0.029,103.0,104.0,103.0,13.3,1505.2,321.7,-0.8,1.8,2471.46,13.28,0.057,90.0
2023-09-01T04:07:03,42.805,6.029,0.034,-0.003,-0.022,105.0,104.0,103.0,13.4,1505.2,330.3,-0.8,1.8,2471.497,13.28,0.034,95.0
2023-09-01T04:10:03,42.805,6.029,0.016,-0.006,0.003,105.0,105.0,103.0,13.4,1505.2,333.9,-0.8,1.8,2471.444,13.29,0.017,110.6
2023-09-01T04:13:03,42.805,6.029,0.033,-0.013,0.01,104.0,104.0,103.0,13.3,1505.2,340.3,-0.7,1.8,2471.414,13.29,0.035,111.5
2023-09-01T04:16:03,42.805,6.029,0.02,-0.001,-0.015,105.0,103.0,102.0,13.4,1505.2,345.0,-0.8,1.8,2471.434,13.29,0.02,92.9
2023-09-01T04:19:03,42.805,6.029,0.025,-0.016,-0.003,105.0,104.0,103.0,13.4,1505.2,345.9,-0.8,1.7,2471.45,13.29,0.029,122.6
2023-09-01T04:22:03,42.805,6.029,0.027,0.0,-0.032,104.0,104.0,102.0,13.3,1505.2,332.9,-0.8,1.8,2471.424,13.29,0.026,90.0
2023-09-01T04:25:03,42.805,6.029,0.028,-0.017,-0.041,103.0,106.0,103.0,13.4,1505.2,349.5,-0.8,1.8,2471.419,13.29,0.032,121.3
2023-09-01T04:28:03,42.805,6.029,0.039,-0.036,-0.035,104.0,103.0,102.0,13.4,1505.2,351.0,-0.8,1.8,2471.432,13.29,0.053,132.7
2023-09-01T04:31:03,42.805,6.029,0.072,-0.022,-0.002,105.0,104.0,102.0,13.3,1505.2,327.0,-0.8,1.8,2471.436,13.29,0.075,107.0
2023-09-01T04:34:03,42.805,6.029,0.028,-0.007,-0.031,103.0,105.0,102.0,13.3,1505.2,337.5,-0.8,1.8,2471.455,13.29,0.028,104.0
2023-09-01T04:37:03,42.805,6.029,0.018,-0.004,-0.035,105.0,104.0,103.0,13.4,1505.2,344.0,-0.8,1.8,2471.427,13.29,0.018,102.5
2023-09-01T04:40:03,42.805,6.029,0.048,-0.028,-0.02,104.0,104.0,102.0,13.4,1505.2,351.7,-0.7,1.8,2471.486,13.29,0.055,120.3
2023-09-01T04:43:03,42.805,6.029,0.024,-0.016,0.0,104.0,105.0,103.0,13.4,1505.2,331.6,-0.7,1.8,2471.453,13.29,0.028,123.7
2023-09-01T04:46:03,42.805,6.029,0.034,-0.007,-0.026,106.0,103.0,102.0,13.3,1505.2,332.1,-0.7,1.8,2471.471,13.29,0.034,101.6
2023-09-01T04:49:03,42.805,6.029,0.019,-0.001,0.014,105.0,105.0,102.0,13.4,1505.2,344.5,-0.7,1.8,2471.495,13.29,0.019,93.0
2023-09-01T04:52:03,42.805,6.029,0.032,0.002,-0.009,105.0,104.0,102.0,13.3,1505.2,326.8,-0.8,1.8,2471.435,13.29,0.032,86.4
2023-09-01T04:55:03,42.805,6.029,0.026,-0.027,-0.05,104.0,104.0,102.0,13.4,1505.2,340.4,-0.7,1.9,2471.478,13.29,0.037,136.1
2023-09-01T04:58:03,42.805,6.029,0.027,0.002,-0.011,104.0,103.0,103.0,13.4,1505.2,324.7,-0.8,1.8,2471.463,13.29,0.027,85.8
2023-09-01T05:04:03,42.805,6.029,0.032,0.007,-0.012,105.0,103.0,104.0,13.4,1505.2,329.8,-0.7,1.8,2471.492,13.28,0.032,77.7
2023-09-01T05:07:03,42.805,6.029,0.036,-0.024,-0.003,105.0,104.0,102.0,13.4,1505.2,347.8,-0.8,1.8,2471.539,13.29,0.043,123.7
2023-09-01T05:10:03,42.805,6.029,0.052,-0.014,-0.017,104.0,103.0,104.0,13.3,1505.2,332.9,-0.7,1.8,2471.532,13.29,0.053,105.1
2023-09-01T05:13:03,42.805,6.029,0.041,-0.002,-0.001,104.0,104.0,103.0,13.4,1505.2,329.4,-0.8,1.8,2471.51,13.29,0.041,92.8
2023-09-01T05:16:03,42.805,6.029,0.008,-0.003,-0.032,105.0,104.0,102.0,13.4,1505.2,333.8,-0.8,1.8,2471.532,13.29,0.008,110.6
2023-09-01T05:19:03,42.805,6.029,0.057,-0.041,-0.003,105.0,104.0,104.0,13.4,1505.2,349.3,-0.8,1.8,2471.488,13.29,0.07,125.7
2023-09-01T05:22:03,42.805,6.029,0.037,-0.007,0.008,106.0,104.0,103.0,13.4,1505.2,333.4,-0.8,1.8,2471.493,13.29,0.037,100.7
2023-09-01T05:25:03,42.805,6.029,0.05,-0.007,0.0,103.0,106.0,103.0,13.3,1505.2,329.2,-0.8,1.8,2471.524,13.29,0.05,98.0
2023-09-01T05:28:03,42.805,6.029,0.029,-0.024,-0.037,104.0,103.0,103.0,13.4,1505.2,348.2,-0.8,1.8,2471.485,13.29,0.037,129.6
2023-09-01T05:31:03,42.805,6.029,0.053,-0.013,0.003,105.0,104.0,102.0,13.4,1505.2,326.0,-0.8,1.8,2471.512,13.29,0.054,103.8
2023-09-01T05:34:03,42.805,6.029,0.037,0.002,0.022,105.0,104.0,102.0,13.4,1505.2,322.7,-0.8,1.8,2471.546,13.29,0.037,86.9
2023-09-01T05:37:03,42.805,6.029,0.054,-0.008,-0.018,105.0,104.0,102.0,13.4,1505.2,341.5,-0.7,1.8,2471.481,13.29,0.054,98.4
2023-09-01T05:40:03,42.805,6.029,0.05,-0.003,-0.018,105.0,104.0,103.0,13.4,1505.2,335.9,-0.8,1.8,2471.512,13.29,0.05,93.4
2023-09-01T05:43:03,42.805,6.029,0.038,-0.023,-0.027,104.0,105.0,102.0,13.4,1505.2,344.5,-0.8,1.8,2471.565,13.29,0.044,121.2
2023-09-01T05:46:03,42.805,6.029,0.025,-0.026,-0.037,105.0,103.0,103.0,13.4,1505.2,340.8,-0.8,1.8,2471.525,13.29,0.036,136.1
2023-09-01T05:49:03,42.805,6.029,0.03,-0.02,-0.021,105.0,103.0,102.0,13.4,1505.2,344.0,-0.8,1.8,2471.542,13.29,0.036,123.7
2023-09-01T05:52:03,42.805,6.029,0.029,-0.004,-0.013,104.0,104.0,103.0,13.4,1505.2,331.9,-0.8,1.8,2471.494,13.29,0.029,97.8
2023-09-01T05:55:03,42.805,6.029,0.028,-0.011,-0.004,104.0,104.0,102.0,13.3,1505.2,342.1,-0.7,1.8,2471.492,13.29,0.03,111.4
2023-09-01T05:58:03,42.805,6.029,0.045,-0.023,-0.039,104.0,104.0,103.0,13.4,1505.2,333.0,-0.8,1.8,2471.571,13.29,0.05,117.1
2023-09-01T06:04:03,42.805,6.029,0.022,-0.027,-0.011,104.0,103.0,102.0,13.4,1505.2,351.0,-0.8,1.8,2471.593,13.28,0.034,140.8
2023-09-01T06:07:03,42.805,6.029,0.04,-0.011,-0.035,103.0,104.0,103.0,13.4,1505.2,343.4,-0.7,1.8,2471.616,13.28,0.041,105.4
2023-09-01T06:10:03,42.805,6.029,0.041,-0.008,0.006,104.0,103.0,103.0,13.4,1505.2,343.4,-0.8,1.8,2471.595,13.29,0.041,101.0
2023-09-01T06:13:03,42.805,6.029,0.056,-0.016,0.01,105.0,104.0,102.0,13.3,1505.2,330.8,-0.8,1.8,2471.564,13.29,0.058,105.9
2023-09-01T06:16:03,42.805,6.029,0.013,-0.024,-0.027,103.0,103.0,103.0,13.4,1505.2,340.8,-0.8,1.8,2471.589,13.29,0.027,151.6
2023-09-01T06:19:03,42.805,6.029,0.024,0.009,-0.009,105.0,104.0,102.0,13.4,1505.2,340.7,-0.8,1.8,2471.557,13.29,0.025,69.4
2023-09-01T06:22:03,42.805,6.029,0.038,-0.022,-0.003,104.0,104.0,102.0,13.4,1505.2,348.2,-0.8,1.8,2471.552,13.29,0.043,120.1
2023-09-01T06:25:03,42.805,6.029,0.053,-0.031,0.006,104.0,104.0,103.0,13.4,1505.2,340.0,-0.8,1.8,2471.577,13.29,0.061,120.3
2023-09-01T06:28:03,42.805,6.029,0.033,-0.017,-0.021,104.0,103.0,103.0,13.4,1505.2,335.4,-0.8,1.8,2471.555,13.29,0.037,117.3
2023-09-01T06:31:03,42.805,6.029,0.043,-0.025,-0.032,103.0,105.0,102.0,13.4,1505.2,333.9,-0.8,1.8,2471.567,13.29,0.049,120.2
2023-09-01T06:34:03,42.805,6.029,0.054,-0.053,-0.025,104.0,104.0,103.0,13.4,1505.2,346.5,-0.8,1.8,2471.55,13.29,0.075,134.5
2023-09-01T06:37:03,42.805,6.029,0.035,-0.023,-0.048,104.0,104.0,102.0,13.4,1505.2,341.8,-0.8,1.8,2471.542,13.29,0.041,123.3
2023-09-01T06:40:03,42.805,6.029,0.031,-0.016,-0.021,104.0,103.0,102.0,13.4,1505.2,345.9,-0.7,1.8,2471.556,13.29,0.034,117.3
2023-09-01T06:43:03,42.805,6.029,0.046,-0.018,-0.02,104.0,104.0,102.0,13.4,1505.2,333.4,-0.8,1.8,2471.565,13.29,0.049,111.4
2023-09-01T06:46:03,42.805,6.029,0.034,-0.025,0.004,105.0,103.0,102.0,13.4,1505.2,348.9,-0.8,1.8,2471.588,13.29,0.042,126.3
2023-09-01T06:49:03,42.805,6.029,0.016,-0.021,-0.032,104.0,104.0,102.0,13.4,1505.2,347.0,-0.8,1.8,2471.566,13.29,0.026,142.7
2023-09-01T06:52:03,42.805,6.029,0.03,-0.008,-0.039,103.0,104.0,102.0,13.4,1505.2,329.0,-0.8,1.8,2471.589,13.29,0.031,104.9
2023-09-01T06:55:03,42.805,6.029,0.048,-0.024,-0.004,104.0,105.0,102.0,13.3,1505.2,336.9,-0.8,1.8,2471.579,13.29,0.053,116.6
2023-09-01T06:58:03,42.805,6.029,0.033,-0.014,-0.024,104.0,104.0,102.0,13.4,1505.2,348.2,-0.8,1.8,2471.558,13.29,0.035,113.0
2023-09-01T07:04:03,42.805,6.029,0.034,-0.035,-0.028,104.0,104.0,102.0,13.4,1505.2,342.5,-0.8,1.8,2471.615,13.28,0.048,135.8
2023-09-01T07:07:03,42.805,6.029,0.031,-0.027,-0.047,106.0,104.0,102.0,13.3,1505.2,340.4,-0.8,1.8,2471.592,13.28,0.041,131.1
2023-09-01T07:10:03,42.805,6.029,0.033,-0.01,0.0,104.0,103.0,103.0,13.3,1505.2,332.9,-0.8,1.8,2471.61,13.29,0.034,106.9
2023-09-01T07:13:03,42.805,6.029,0.042,-0.021,0.007,104.0,104.0,102.0,13.4,1505.2,348.6,-0.8,1.8,2471.62,13.29,0.046,116.6
2023-09-01T07:16:03,42.805,6.029,0.02,-0.001,-0.004,105.0,103.0,102.0,13.4,1505.2,333.9,-0.8,1.8,2471.596,13.29,0.02,92.9
2023-09-01T07:19:03,42.805,6.029,0.047,-0.024,-0.053,104.0,104.0,102.0,13.3,1505.2,340.8,-0.7,1.9,2471.598,13.29,0.052,117.0
2023-09-01T07:22:03,42.805,6.029,0.024,-0.016,-0.019,105.0,104.0,102.0,13.3,1505.2,329.0,-0.8,1.8,2471.605,13.29,0.028,123.7
2023-09-01T07:25:03,42.805,6.029,0.039,-0.036,-0.023,104.0,104.0,102.0,13.4,1505.2,332.1,-0.7,1.8,2471.604,13.29,0.053,132.7
2023-09-01T07:28:03,42.805,6.029,0.023,0.0,-0.028,104.0,104.0,102.0,13.3,1505.2,335.9,-0.7,1.8,2471.58,13.29,0.023,90.0
2023-09-01T07:31:03,42.805,6.029,0.03,-0.012,-0.017,105.0,105.0,104.0,13.3,1505.2,348.2,-0.8,1.8,2471.61,13.29,0.032,111.8
2023-09-01T07:34:03,42.805,6.029,0.058,-0.015,-0.018,104.0,104.0,102.0,13.4,1505.2,343.7,-0.8,1.8,2471.573,13.29,0.059,104.5
2023-09-01T07:37:03,42.805,6.029,0.021,-0.019,-0.031,104.0,105.0,102.0,13.4,1505.2,350.3,-0.8,1.8,2471.566,13.29,0.028,132.1
2023-09-01T07:40:03,42.805,6.029,0.027,0.001,-0.012,104.0,105.0,103.0,13.3,1505.2,347.1,-0.8,1.8,2471.591,13.29,0.027,87.9
2023-09-01T07:43:03,42.805,6.029,0.024,0.011,0.024,103.0,104.0,102.0,13.4,1505.2,330.1,-0.8,1.8,2471.611,13.29,0.026,65.4
2023-09-01T07:46:03,42.805,6.029,0.03,-0.013,-0.021,105.0,103.0,102.0,13.4,1505.2,335.3,-0.7,1.8,2471.591,13.29,0.032,113.4
2023-09-01T07:49:03,42.805,6.029,0.039,-0.029,-0.059,103.0,104.0,102.0,13.4,1505.2,348.2,-0.8,1.8,2471.591,13.29,0.048,126.6
2023-09-01T07:52:03,42.805,6.029,0.026,-0.009,-0.012,106.0,104.0,102.0,13.4,1505.2,341.9,-0.8,1.8,2471.571,13.29,0.027,109.1
2023-09-01T07:55:03,42.805,6.029,0.049,-0.008,0.014,103.0,104.0,102.0,13.4,1505.2,331.6,-0.8,1.8,2471.587,13.29,0.049,99.3
2023-09-01T07:58:03,42.805,6.029,0.05,-0.015,0.01,104.0,103.0,103.0,13.3,1505.2,337.2,-0.8,1.8,2471.572,13.29,0.052,106.7
2023-09-01T08:04:03,42.805,6.029,0.051,-0.009,0.019,104.0,103.0,102.0,13.4,1505.2,336.0,-0.7,1.8,2471.666,13.28,0.051,100.0
2023-09-01T08:07:03,42.805,6.029,0.019,0.005,-0.014,104.0,104.0,102.0,13.4,1505.2,338.5,-0.7,1.8,2471.636,13.28,0.019,75.3
2023-09-01T08:10:03,42.805,6.029,0.043,-0.01,-0.024,104.0,103.0,102.0,13.4,1505.2,338.2,-0.8,1.9,2471.614,13.29,0.044,103.1
2023-09-01T08:13:03,42.805,6.029,0.026,-0.016,-0.033,104.0,103.0,102.0,13.4,1505.2,343.4,-0.8,1.8,2471.579,13.29,0.03,121.6
2023-09-01T08:16:03,42.805,6.029,0.02,-0.006,-0.017,103.0,104.0,103.0,13.4,1505.2,339.3,-0.8,1.8,2471.605,13.29,0.02,106.7
2023-09-01T08:19:03,42.805,6.029,0.035,0.003,0.009,103.0,104.0,102.0,13.4,1505.2,332.4,-0.8,1.8,2471.631,13.29,0.035,85.1
2023-09-01T08:22:03,42.805,6.029,0.047,-0.007,-0.044,104.0,104.0,102.0,13.4,1505.2,332.9,-0.8,1.8,2471.628,13.29,0.047,98.5
2023-09-01T08:25:03,42.805,6.029,0.05,0.004,0.024,104.0,103.0,102.0,13.4,1505.2,345.3,-0.7,1.8,2471.601,13.29,0.05,85.4
2023-09-01T08:28:03,42.805,6.029,0.033,0.0,-0.014,105.0,103.0,102.0,13.4,1505.2,327.0,-0.8,1.8,2471.586,13.29,0.033,90.0
2023-09-01T08:31:03,42.805,6.029,0.02,0.0,0.0,104.0,102.0,102.0,13.4,1505.2,332.5,-0.8,1.8,2471.565,13.29,0.02,90.0
2023-09-01T08:34:03,42.805,6.029,0.039,-0.027,0.006,105.0,103.0,103.0,13.4,1505.2,347.3,-0.8,1.8,2471.56,13.29,0.047,124.7
2023-09-01T08:37:03,42.805,6.029,0.023,-0.009,-0.009,104.0,102.0,103.0,13.4,1505.2,341.5,-0.8,1.8,2471.583,13.29,0.024,111.4
2023-09-01T08:40:03,42.805,6.029,0.041,-0.028,-0.016,104.0,103.0,102.0,13.4,1505.2,333.8,-0.8,1.8,2471.569,13.29,0.049,124.3
2023-09-01T08:43:03,42.805,6.029,0.023,-0.005,-0.001,104.0,103.0,103.0,13.4,1505.2,334.9,-0.7,1.8,2471.598,13.29,0.023,102.3
2023-09-01T08:46:03,42.805,6.029,0.023,-0.014,-0.023,103.0,103.0,101.0,13.3,1505.2,344.0,-0.7,1.8,2471.588,13.29,0.026,121.3
2023-09-01T08:49:03,42.805,6.029,0.037,0.024,0.002,104.0,103.0,102.0,13.4,1505.2,331.0,-0.8,1.8,2471.566,13.29,0.044,57.0
2023-09-01T08:52:03,42.805,6.029,0.022,0.002,-0.011,104.0,103.0,102.0,13.4,1505.2,325.7,-0.7,1.8,2471.577,13.29,0.022,84.8
2023-09-01T08:55:03,42.805,6.029,0.024,-0.021,-0.031,104.0,104.0,102.0,13.3,1505.2,341.9,-0.7,1.8,2471.584,13.29,0.031,131.2
2023-09-01T08:58:03,42.805,6.029,0.036,-0.043,-0.054,104.0,103.0,102.0,13.3,1505.2,349.1,-0.8,1.8,2471.564,13.29,0.056,140.1
2023-09-01T09:04:03,42.805,6.029,0.043,-0.007,-0.055,104.0,104.0,102.0,13.4,1505.2,332.1,-0.8,1.8,2471.629,13.28,0.043,99.2
2023-09-01T09:07:03,42.805,6.029,0.036,-0.01,-0.004,104.0,104.0,103.0,13.3,1505.2,336.9,-0.8,1.8,2471.646,13.28,0.037,105.5
2023-09-01T09:10:03,42.805,6.029,0.035,-0.005,-0.023,104.0,105.0,102.0,13.3,1505.2,345.9,-0.8,1.8,2471.594,13.29,0.035,98.1
2023-09-01T09:13:03,42.805,6.029,0.026,-0.012,-0.022,103.0,104.0,102.0,13.4,1505.2,337.1,-0.8,1.8,2471.593,13.29,0.028,114.8
2023-09-01T09:16:03,42.805,6.029,0.026,-0.025,0.003,104.0,103.0,103.0,13.4,1505.2,353.1,-0.8,1.8,2471.566,13.29,0.036,133.9
2023-09-01T09:19:03,42.805,6.029,0.05,-0.026,0.001,104.0,103.0,102.0,13.4,1505.2,347.9,-0.8,1.8,2471.56,13.29,0.056,117.5
2023-09-01T09:22:03,42.805,6.029,0.022,0.016,0.011,104.0,103.0,102.0,13.3,1505.2,327.3,-0.7,1.8,2471.556,13.29,0.027,54.0
2023-09-01T09:25:03,42.805,6.029,0.031,-0.014,0.007,104.0,104.0,102.0,13.4,1505.2,333.8,-0.7,1.8,2471.585,13.29,0.034,114.3
2023-09-01T09:28:03,42.805,6.029,0.041,0.001,-0.029,104.0,104.0,103.0,13.3,1505.2,329.6,-0.8,1.8,2471.564,13.29,0.041,88.6
2023-09-01T09:31:03,42.805,6.029,0.025,0.007,-0.006,104.0,104.0,102.0,13.4,1505.2,344.3,-0.8,1.8,2471.565,13.29,0.025,74.4
2023-09-01T09:34:03,42.805,6.029,0.025,-0.006,0.0,104.0,105.0,102.0,13.4,1505.2,344.5,-0.7,1.8,2471.56,13.29,0.025,103.5
2023-09-01T09:37:03,42.805,6.029,0.03,-0.027,-0.008,106.0,102.0,104.0,13.3,1505.2,337.3,-0.8,1.8,2471.527,13.29,0.04,132.0
2023-09-01T09:40:03,42.805,6.029,0.033,-0.01,-0.023,105.0,103.0,102.0,13.3,1505.2,351.7,-0.7,1.8,2471.559,13.29,0.034,106.9
2023-09-01T09:43:03,42.805,6.029,0.051,0.006,-0.032,104.0,104.0,102.0,13.4,1505.2,341.8,-0.8,1.8,2471.511,13.29,0.051,83.3
2023-09-01T09:46:03,42.805,6.029,0.023,-0.009,-0.037,103.0,104.0,102.0,13.3,1505.2,343.1,-0.8,1.8,2471.515,13.29,0.024,111.4
2023-09-01T09:49:03,42.805,6.029,0.029,-0.033,-0.052,104.0,104.0,102.0,13.4,1505.2,337.8,-0.8,1.8,2471.559,13.29,0.043,138.7
2023-09-01T09:52:03,42.805,6.029,0.05,0.006,0.012,103.0,103.0,102.0,13.4,1505.2,341.1,-0.8,1.8,2471.547,13.29,0.05,83.2
2023-09-01T09:55:03,42.805,6.029,0.04,0.009,0.025,105.0,104.0,102.0,13.4,1505.2,343.7,-0.8,1.8,2471.484,13.29,0.041,77.3
2023-09-01T09:58:03,42.805,6.029,0.009,-0.022,-0.006,107.0,104.0,103.0,13.4,1505.2,345.7,-0.7,1.8,2471.509,13.29,0.023,157.8